| time (UTC) | temp F | wind direction | speed knots | gust knots | rain 1hr in | rain 24hr in | rain mn in | humidity % | barometer mb |
| 20260503193002 | 75 | 268 | 2.6 | 8.7 | 0.00 | 0.00 | 0.00 | 48 | 1013.1 |
| 20260503191601 | 75 | 284 | 3.5 | 7.8 | 0.00 | 0.00 | 0.00 | 50 | 1013.2 |
| 20260503190054 | 75 | 286 | 3.5 | 8.7 | 0.00 | 0.00 | 0.00 | 50 | 1013.4 |
| 20260503184530 | 79 | 288 | 1.7 | 7.8 | 0.00 | 0.00 | 0.00 | 46 | 1013.4 |
| 20260503183024 | 77 | 296 | 4.3 | 7.0 | 0.00 | 0.00 | 0.00 | 46 | 1013.6 |
| 20260503181513 | 78 | 278 | 1.7 | 6.1 | 0.00 | 0.00 | 0.00 | 48 | 1013.7 |
| 20260503180009 | 78 | 228 | 1.7 | 7.0 | 0.00 | 0.00 | 0.00 | 47 | 1013.7 |
| 20260503174502 | 78 | 299 | 0.0 | 4.3 | 0.00 | 0.00 | 0.00 | 47 | 1013.8 |
| 20260503173001 | 79 | 237 | 1.7 | 7.0 | 0.00 | 0.00 | 0.00 | 52 | 1013.8 |
| 20260503171557 | 77 | 278 | 0.9 | 5.2 | 0.00 | 0.00 | 0.00 | 53 | 1013.8 |
| 20260503120104 | 54 | 95 | 1.7 | 2.6 | 0.00 | 0.00 | 0.00 | 79 | 1014.5 |
| 20260503081514 | 55 | 86 | 0.9 | 2.6 | 0.00 | 0.00 | 0.00 | 88 | 1015.1 |
| 20260503071539 | 57 | 75 | 2.6 | 3.5 | 0.00 | 0.00 | 0.00 | 84 | 1015.2 |
| 20260503054539 | 58 | 285 | 0.0 | 0.9 | 0.00 | 0.00 | 0.00 | 78 | 1015.3 |
| 20260503053038 | 58 | 285 | 0.0 | 1.7 | 0.00 | 0.00 | 0.00 | 78 | 1015.5 |
| 20260503051524 | 59 | 284 | 0.0 | 0.0 | 0.00 | 0.00 | 0.00 | 76 | 1015.5 |
| 20260503050020 | 60 | 284 | 0.0 | 1.7 | 0.00 | 0.00 | 0.00 | 74 | 1015.4 |
| 20260503044535 | 60 | 284 | 0.0 | 1.7 | 0.00 | 0.00 | 0.00 | 75 | 1015.2 |
| 20260503043018 | 60 | 284 | 0.0 | 1.7 | 0.00 | 0.00 | 0.00 | 75 | 1015.0 |
| 20260503041543 | 60 | 284 | 0.0 | 0.0 | 0.00 | 0.00 | 0.00 | 74 | 1014.8 |
| 20260503040038 | 61 | 284 | 0.0 | 1.7 | 0.00 | 0.00 | 0.00 | 72 | 1014.7 |
| 20260503034556 | 61 | 284 | 0.0 | 1.7 | 0.00 | 0.00 | 0.00 | 74 | 1014.4 |
| 20260503033049 | 62 | 284 | 0.0 | 2.6 | 0.00 | 0.00 | 0.00 | 74 | 1014.2 |
| 20260503031506 | 63 | 279 | 0.9 | 2.6 | 0.00 | 0.00 | 0.00 | 73 | 1014.0 |
| 20260503030014 | 64 | 284 | 1.7 | 4.3 | 0.00 | 0.00 | 0.00 | 71 | 1013.8 |
| 20260503024604 | 65 | 246 | 0.9 | 3.5 | 0.00 | 0.00 | 0.00 | 70 | 1013.7 |
| 20260503023058 | 66 | 264 | 0.9 | 5.2 | 0.00 | 0.00 | 0.00 | 68 | 1013.6 |
| 20260503021553 | 67 | 277 | 0.9 | 4.3 | 0.00 | 0.00 | 0.00 | 68 | 1013.6 |
| 20260503020014 | 68 | 238 | 3.5 | 7.0 | 0.00 | 0.00 | 0.00 | 65 | 1013.5 |
| 20260503014513 | 71 | 242 | 2.6 | 7.8 | 0.00 | 0.00 | 0.00 | 62 | 1013.6 |
| 20260503013004 | 72 | 274 | 2.6 | 7.0 | 0.00 | 0.00 | 0.00 | 59 | 1013.5 |
| 20260503011608 | 72 | 274 | 0.9 | 7.8 | 0.00 | 0.00 | 0.00 | 59 | 1013.6 |
| 20260503011502 | 72 | 270 | 1.7 | 8.7 | 0.00 | 0.00 | 0.00 | 59 | 1013.6 |
| 20260503004550 | 72 | 249 | 1.7 | 8.7 | 0.00 | 0.00 | 0.00 | 60 | 1013.6 |
| 20260503003046 | 71 | 264 | 2.6 | 7.0 | 0.00 | 0.00 | 0.00 | 59 | 1013.7 |
| 20260503001502 | 71 | 287 | 5.2 | 9.6 | 0.00 | 0.00 | 0.00 | 60 | 1013.7 |
| 20260503000003 | 71 | 271 | 3.5 | 13.9 | 0.00 | 0.00 | 0.00 | 61 | 1013.8 |
| 20260502234559 | 71 | 295 | 2.6 | 7.8 | 0.00 | 0.00 | 0.00 | 61 | 1013.9 |
| 20260502233053 | 72 | 276 | 5.2 | 11.3 | 0.00 | 0.00 | 0.00 | 57 | 1014.1 |
| 20260502231551 | 72 | 283 | 3.5 | 8.7 | 0.00 | 0.00 | 0.00 | 60 | 1014.3 |
| 20260502230027 | 69 | 305 | 5.2 | 10.4 | 0.00 | 0.00 | 0.00 | 63 | 1014.4 |
| 20260502224510 | 68 | 283 | 2.6 | 8.7 | 0.00 | 0.00 | 0.00 | 64 | 1014.6 |
| 20260502223059 | 68 | 294 | 2.6 | 9.6 | 0.00 | 0.00 | 0.00 | 64 | 1014.8 |
| 20260502223001 | 68 | 260 | 2.6 | 9.6 | 0.00 | 0.00 | 0.00 | 64 | 1014.8 |
| 20260502221558 | 67 | 266 | 4.3 | 9.6 | 0.00 | 0.00 | 0.00 | 63 | 1014.9 |
| 20260502220049 | 67 | 251 | 3.5 | 7.8 | 0.00 | 0.00 | 0.00 | 63 | 1015.1 |
| 20260502214546 | 67 | 242 | 4.3 | 8.7 | 0.00 | 0.00 | 0.00 | 61 | 1015.2 |
| 20260502213045 | 68 | 288 | 4.3 | 9.6 | 0.00 | 0.00 | 0.00 | 61 | 1015.2 |
| 20260502211536 | 71 | 221 | 2.6 | 7.0 | 0.00 | 0.00 | 0.00 | 54 | 1015.3 |
| 20260502210018 | 71 | 287 | 0.9 | 7.0 | 0.00 | 0.00 | 0.00 | 58 | 1015.4 |
| 20260502204505 | 67 | 195 | 1.7 | 7.8 | 0.00 | 0.00 | 0.00 | 63 | 1015.5 |
| 20260502203005 | 67 | 261 | 1.7 | 5.2 | 0.00 | 0.00 | 0.00 | 63 | 1015.6 |
| 20260502201551 | 66 | 273 | 0.9 | 5.2 | 0.00 | 0.00 | 0.00 | 66 | 1015.6 |
| 20260502200049 | 65 | 293 | 0.0 | 4.3 | 0.00 | 0.00 | 0.00 | 68 | 1015.9 |
| 20260502194551 | 65 | 250 | 0.9 | 4.3 | 0.00 | 0.00 | 0.00 | 67 | 1016.0 |